OneWeb SL0409

operational
NORAD ID: 50488 Int'l Des: 2021-132 Owner: ONEWEBN Country: UK Constellation: oneweb
LEOCIRCULARPOLARONEWEB_TYPE

About OneWeb SL0409

Description loading...

Live Position

Loading 3D Globe...

Upcoming Passes

Altitude History

Altitude vs Time

uPlot chart will show altitude changes over time

Two-Line Element Set

1 50488U 21132V 25296.65723439 .00000429 00000-0 11737-2 0 9993
2 50488 87.8845 68.1390 0001728 87.6245 272.5080 13.11418264184585
Epoch: Oct 23, 2025 • Age: 10 hours

Current Status

Altitude 1221.4 km
Velocity 7.24 km/s
Sub-Earth Point -4.43°S, 172.5°W
Launch Date Dec 27, 2021
Age 3.8 years
Type internet

Technical Details

Classification Payload
Mass 148.00 kg
Dry Mass 140.00 kg
Total Mass 148.00 kg
Length 1.30 m
Diameter 1.00 m
Span 5.00 m
Shape Trapezoid+2 pan
Manufacturer ONEWUS
Bus Type ARROW
Phase Status In Orbit
Owner/State ONEWEBN/UK

Large Constellations

Loading constellations...